FENGYUN 1C DEB, 31000

Orbit data source: Space-Track

FENGYUN 1C DEB, 31000 is space debris in SSO originally from a launch on Mon, 10 May 1999 UTC launched from the Taiyaun Space Center, China (TSC). Fengyun 1C debris stems from the Chinese weather satellite Fengyun-1C, which was intentionally destroyed by a Chinese anti-satellite missile in 2007. This event dramatically increased the amount of space debris, with thousands of trackable fragments posing hazards to satellites and human spaceflight. The Fengyun 1C debris cloud has become a focal point in discussions about space sustainability and the need for international regulations to prevent the creation of new debris.

Loading next visibility...
Identifier
31000, 1999-025BCS
Orbit
SSO
Country
Flag of CNCN / PRC
Related business
Manufacturer
Unknown
Mission
Spacecraft
Bus & Motor
Unknown
Mass
Unknown
Launch date (UTC)
1999-05-10 (27 years ago)
Launch vehicle
Unknown
Launch site
Taiyaun Space Center, China (TSC)
Object type
Payload
Rocket body
Debris
Shape & HBR
Unknown shape, 0.1 m
Radar Cross Section
Small (<0.1 m²)

Expand to show TLE details & history
Last TLE update: 1 week ago

TLE from 1 week ago
0 FENGYUN 1C DEB
1 31000U 99025BCS 26154.87834674  .00000809  00000-0  42317-3 0  9991
2 31000  97.5537 161.0668 0161839 279.8267 199.6380 14.10049630723960
Epoch: 2026-06-03T21:04Z
TLE epoch observation values (Epoch: 2026-06-03T21:04:49.158Z)
Latitude
60.35006°
Longitude
145.93145°
Altitude
980.024 km
Speed
7.311 km/s
True Right ascension
23h 37m 52s
True Declination
60° 12' 23"
Sunlit
Object was in daylight at epoch
Visualization orbit readout
Latitude
Unknown
Longitude
Unknown
Altitude
Unknown
Speed
Unknown
Apparent Right ascension
Unknown
Apparent Declination
Unknown
Sunlit
N/A
Visualization observer readout
Local Sidereal Time
10:54:51
Azimuth
Unknown
Elevation
Unknown
Doppler factor
Unknown
Orbital elements
Apogee altitude
973.403 km
Perigee altitude
739.239 km
Semi-major axis
7,234.458 km
Eccentricity
0.01618
Inclination
97.5537°
RAAN
161.0668°
Arg. of periapsis
279.8267°
True anomaly
199.02641°
Mean anomaly
199.638°
Eccentric anomaly
199.33105°
Mean motion
3.52723 °/min
Orbital period
102.06 mins
BSTAR
0.00042317
Loading maneuver chart data...
Computing Atmospheric mass density...

Documentation

Showing up to 5 results
|